Date,TemperatureHighF,TemperatureAvgF,TemperatureLowF,DewpointHighF,DewpointAvgF,DewpointLowF,HumidityHigh,HumidityAvg,HumidityLow,PressureMaxIn,PressureMinIn,WindSpeedMaxMPH,WindSpeedAvgMPH,GustSpeedMaxMPH,PrecipitationSumIn
2013-1-1,58.6,53.0,49.1,50.0,48.0,46.2,94,83,73,29.00,28.92,8,3,15,0.00
2013-1-2,64.2,56.0,48.2,54.9,50.9,47.0,99,84,65,29.12,29.00,1,0,3,0.00
2013-1-3,64.4,56.1,50.0,57.9,51.5,42.6,99,85,65,29.25,29.16,2,0,8,0.00
2013-1-4,64.8,55.2,47.8,45.9,41.6,38.2,75,61,43,29.18,28.94,6,1,11,0.00
2013-1-6,49.6,46.9,43.5,41.0,38.6,37.3,81,73,68,28.75,28.65,13,8,17,0.00
2013-1-7,49.3,44.9,40.5,34.2,29.1,24.8,70,55,44,28.83,28.74,12,7,27,0.01
2013-1-8,41.2,37.8,35.6,34.0,30.8,25.7,93,76,65,29.07,28.97,8,5,17,0.08
2013-1-9,47.3,42.0,33.8,34.6,30.6,26.1,74,64,52,29.12,29.03,3,1,8,0.00
2013-1-10,56.8,47.9,40.8,42.0,33.0,23.1,71,57,38,29.05,28.89,3,1,10,0.00
2013-1-11,65.8,59.4,53.4,57.1,54.8,49.6,99,86,66,28.75,28.66,6,0,12,0.04
2013-1-12,62.4,55.8,50.5,52.9,49.3,43.8,99,80,61,28.88,28.67,6,1,13,0.01
2013-1-13,63.7,55.0,47.8,48.8,45.8,42.6,85,72,56,29.06,28.88,3,1,10,0.00
2013-1-14,62.8,56.1,51.4,54.0,49.3,45.1,87,78,68,29.12,29.06,8,3,20,0.00
2013-1-15,62.8,58.4,55.6,57.3,53.0,50.8,96,83,72,29.10,28.87,8,2,15,0.01
2013-1-16,60.4,56.7,51.6,57.0,52.7,47.2,99,87,71,28.83,28.53,9,4,23,0.53
2013-1-17,60.8,57.1,51.4,56.0,50.1,44.6,91,78,67,28.62,28.51,10,2,20,0.00
2013-1-18,59.5,55.0,48.2,55.8,49.9,41.6,99,83,66,28.49,28.30,10,4,27,0.14
2013-1-19,57.4,52.4,48.4,46.4,43.8,42.0,83,73,62,28.71,28.38,6,1,14,0.00
2013-1-20,68.4,58.0,50.7,59.3,50.7,43.4,97,77,56,28.80,28.70,6,1,15,0.00
2013-1-21,66.4,61.6,58.3,60.1,55.5,49.6,99,82,58,28.72,28.49,14,5,25,0.00
2013-1-22,65.7,60.4,54.0,56.9,52.7,49.9,95,77,60,28.61,28.50,6,0,10,0.00
2013-1-23,62.8,58.8,55.6,51.6,48.7,46.8,82,70,57,28.78,28.62,6,1,12,0.00
2013-1-26,51.3,51.0,50.7,50.4,49.0,47.5,99,93,87,28.38,28.35,8,7,14,0.00
2013-1-27,53.8,49.6,46.9,47.0,45.1,44.2,97,85,75,28.68,28.53,3,1,8,0.00
2013-1-28,58.1,51.4,45.5,49.5,45.2,42.2,92,80,69,28.83,28.75,5,1,9,0.00
2013-1-29,50.7,49.7,48.4,44.1,42.6,40.4,82,76,68,28.92,28.84,5,3,12,0.00
2013-1-31,54.5,54.4,54.3,38.9,35.7,32.4,56,50,43,28.82,28.80,12,11,30,0.02
2013-2-1,61.2,52.0,46.4,44.9,37.3,34.5,63,57,51,28.89,28.78,5,1,11,0.00
2013-2-21,55.4,55.2,54.9,49.7,49.3,48.5,81,80,79,28.68,28.67,7,3,14,0.00
2013-2-26,67.5,61.2,55.9,59.6,55.0,47.4,99,81,56,28.83,28.77,3,1,12,0.00
2013-2-27,60.3,55.5,52.5,49.9,46.2,42.9,82,71,54,28.84,28.76,8,2,17,0.00
2013-2-28,59.4,52.8,48.6,45.9,43.9,42.3,84,72,61,29.01,28.89,7,4,14,0.00
2013-3-1,60.6,53.5,45.9,44.0,41.3,36.4,81,64,52,29.01,28.83,6,2,11,0.00
2013-3-2,61.0,54.8,46.8,50.8,47.5,43.7,90,77,68,28.82,28.70,10,1,19,0.00
2013-3-3,57.4,53.0,48.4,51.6,46.8,41.1,98,80,63,28.80,28.57,21,9,34,1.24
2013-3-4,64.9,54.3,44.4,48.8,44.0,39.0,84,69,52,28.98,28.81,6,1,9,0.00
2013-3-5,59.9,53.5,48.0,46.1,42.3,37.9,87,67,53,29.22,28.99,8,3,18,0.00
2013-3-6,60.8,51.1,43.7,42.6,38.5,35.3,75,63,49,29.22,29.00,3,0,7,0.00
2013-3-7,55.8,54.4,53.6,54.5,49.9,45.1,99,85,72,28.97,28.76,2,0,7,0.20
2013-3-8,63.7,56.2,52.3,56.6,54.3,52.1,99,94,72,28.74,28.67,1,0,3,0.01
2013-3-9,69.8,59.7,53.8,63.3,56.1,53.5,99,89,70,28.67,28.54,3,0,9,0.01
2013-3-10,71.6,63.4,57.6,57.7,54.9,52.6,90,75,59,28.63,28.52,5,0,13,0.00
2013-3-11,73.9,64.3,56.3,64.7,57.5,50.8,99,80,63,28.48,28.38,5,0,12,0.00
2013-3-12,70.2,62.6,57.6,51.8,49.9,48.3,77,64,46,28.45,28.38,14,2,20,0.00
2013-3-13,67.5,60.3,53.4,57.4,51.4,46.9,80,73,61,28.55,28.49,7,1,22,0.01
2013-3-14,68.7,61.7,58.1,60.0,53.6,47.2,93,76,60,28.42,28.10,17,6,25,0.07
2013-3-15,63.1,57.7,52.2,49.1,46.5,43.8,75,66,54,28.40,28.19,13,3,22,0.00
2013-3-16,59.7,53.1,48.7,44.1,41.1,38.5,79,64,50,28.80,28.41,10,3,20,0.00
2013-3-17,59.5,52.2,44.4,42.4,39.4,38.1,79,63,47,28.96,28.80,6,2,12,0.00
2013-3-18,58.3,52.5,48.9,51.8,45.1,39.9,93,76,61,28.98,28.80,3,0,9,0.00
2013-3-19,65.1,59.6,54.7,57.8,54.7,51.1,91,84,73,28.77,28.57,6,3,22,0.00
2013-3-20,69.8,63.0,54.9,59.3,54.9,50.3,95,76,56,28.72,28.60,8,1,20,0.00
2013-3-21,68.4,65.4,61.2,59.2,55.6,50.1,92,71,63,28.56,28.33,13,6,23,0.01
2013-3-22,64.6,58.8,54.0,46.8,43.1,38.8,75,57,40,28.55,28.36,16,8,33,0.34
2013-3-23,67.3,57.8,50.2,46.5,36.1,23.3,71,47,19,28.76,28.56,8,2,13,0.00
2013-3-24,67.3,59.9,52.2,56.5,51.7,46.2,92,75,65,28.80,28.72,8,2,18,0.00
2013-3-25,68.4,61.8,57.7,60.0,55.3,49.0,99,80,66,28.73,28.41,16,5,30,0.07
2013-3-26,69.6,62.6,57.2,59.1,54.2,50.6,99,75,58,28.44,28.32,14,3,19,0.00
2013-3-27,69.1,68.1,67.1,58.1,57.1,56.2,70,68,66,28.52,28.50,0,0,13,0.00
2013-3-28,61.9,59.2,56.5,53.9,52.8,51.7,84,80,75,28.78,28.67,3,2,6,0.00
2013-3-29,66.9,62.5,55.9,58.5,57.0,53.9,95,83,73,28.85,28.78,5,1,10,0.00
2013-3-30,74.8,67.7,58.5,58.2,55.8,53.9,99,68,52,28.76,28.60,8,2,16,0.01
2013-3-31,70.5,66.7,62.4,59.9,57.4,52.7,87,72,63,28.61,28.52,7,1,17,0.00
2013-4-1,69.6,62.8,58.6,53.6,51.1,46.7,81,66,44,28.65,28.56,6,2,17,0.00
2013-4-2,72.7,65.3,59.0,55.7,51.4,48.1,74,62,47,28.65,28.34,10,2,24,0.00
2013-4-3,70.3,64.9,60.1,61.1,53.6,48.2,99,69,46,28.45,28.25,10,5,21,0.00
2013-4-4,58.8,58.8,58.8,51.6,51.6,51.6,77,77,77,28.45,28.45,0,0,2,0.00
2013-4-6,73.0,69.9,68.2,54.2,52.8,49.5,61,55,50,28.51,28.50,2,1,4,0.00
2013-4-7,69.1,67.7,66.2,55.8,53.4,50.7,65,60,54,28.45,28.20,15,9,37,0.76
2013-4-13,74.5,71.3,66.2,54.6,53.2,51.4,59,53,50,28.83,28.82,6,2,8,0.00
2013-4-14,69.4,66.0,63.0,56.3,55.1,54.5,74,68,63,28.84,28.81,3,1,5,0.00
2013-4-17,68.0,62.4,54.7,44.7,37.5,29.8,69,42,24,28.87,28.82,14,6,26,0.46
2013-4-18,66.0,59.9,55.4,43.3,36.7,32.8,62,43,29,28.87,28.78,15,6,26,0.08
2013-4-19,64.2,58.1,53.1,49.4,42.4,38.2,69,56,46,28.78,28.71,8,3,21,0.00
2013-4-20,68.4,62.8,52.7,49.5,45.1,41.0,73,53,44,28.80,28.73,10,4,19,0.00
2013-4-21,76.8,64.7,56.5,55.0,45.1,41.8,63,50,32,28.81,28.69,10,2,19,0.00
2013-4-22,75.6,65.7,59.0,55.8,50.5,44.5,79,60,38,28.82,28.74,6,1,13,0.00
2013-4-23,72.9,65.7,58.5,54.9,52.0,46.7,71,62,50,28.95,28.84,3,0,6,0.63
2013-4-24,77.5,66.4,59.0,56.9,53.0,49.0,74,63,49,29.06,28.98,0,0,2,0.00
2013-4-25,80.6,72.8,61.3,60.1,53.6,45.5,64,51,40,29.03,28.90,3,0,8,0.00
2013-4-26,79.7,73.9,68.2,56.4,55.5,54.6,66,54,42,28.91,28.73,0,0,2,0.00
2013-4-27,79.9,73.4,70.2,52.7,45.6,41.6,42,37,34,28.70,28.64,1,0,11,0.00
2013-4-28,81.3,71.8,64.0,62.9,50.6,40.1,69,50,31,28.78,28.68,6,0,14,0.00
2013-4-29,81.5,73.3,63.9,61.2,52.6,40.7,72,50,35,28.86,28.78,8,0,12,0.00
2013-4-30,90.3,79.8,64.9,60.6,54.1,45.6,64,42,30,28.85,28.75,8,1,15,0.00
2013-5-1,88.9,80.1,71.6,57.4,52.7,45.4,50,39,30,28.79,28.67,10,3,18,0.00
2013-5-2,89.1,81.3,72.7,53.4,47.9,41.6,46,32,25,28.68,28.62,10,6,21,0.00
2013-5-3,86.7,76.7,69.4,65.0,57.0,49.1,70,52,37,28.64,28.56,8,1,15,0.00
2013-5-4,84.2,75.3,68.2,64.8,61.7,57.6,78,64,47,28.67,28.57,7,1,12,0.00
2013-5-5,89.1,78.8,69.8,66.5,60.8,55.8,74,55,40,28.76,28.65,8,1,16,0.00
2013-5-6,87.8,80.9,72.5,63.1,59.1,54.6,72,49,36,28.78,28.68,13,6,21,0.00
2013-5-7,85.5,78.8,72.5,60.7,57.9,54.8,60,49,40,28.69,28.57,6,1,19,0.00
2013-5-14,76.5,73.3,67.6,59.1,57.3,55.5,65,58,53,28.57,28.51,6,4,20,0.11
2013-5-15,79.5,70.3,62.4,62.8,58.0,54.9,81,66,47,28.61,28.55,8,1,15,0.00
2013-5-16,78.6,70.0,64.2,66.2,59.7,55.2,84,71,48,28.63,28.54,7,1,15,0.00
2013-5-17,83.1,74.3,65.8,66.2,60.1,54.6,78,62,47,28.63,28.55,8,1,27,0.00
2013-5-18,83.5,77.0,68.5,68.4,64.7,60.4,78,66,57,28.71,28.62,5,0,12,0.00
2013-5-19,90.5,80.6,72.7,70.0,63.6,57.5,72,57,41,28.68,28.58,7,1,15,0.00
2013-5-20,89.4,80.8,72.0,70.6,65.9,61.2,71,61,49,28.63,28.56,1,0,4,0.00
2013-5-21,84.0,76.7,72.5,66.2,62.5,59.3,71,62,48,28.63,28.58,2,0,6,0.00
2013-5-24,79.3,72.7,70.5,61.8,57.5,56.4,62,59,55,28.61,28.53,7,3,13,0.00
2013-5-25,78.3,72.3,66.9,62.8,58.0,53.9,72,61,51,28.65,28.59,6,2,16,0.00
2013-5-26,84.0,76.8,67.1,60.7,57.0,53.5,69,52,39,28.64,28.53,6,1,12,0.00
2013-5-27,79.9,72.3,66.6,54.7,50.2,46.0,58,46,35,28.67,28.60,5,1,12,0.00
2013-5-28,75.9,71.1,64.2,65.3,57.9,52.2,79,64,46,28.64,28.47,7,1,11,0.00
2013-5-29,86.0,76.8,69.1,67.1,60.8,52.6,79,58,47,28.44,28.25,10,3,21,0.00
2013-5-30,87.1,77.2,70.9,67.0,61.4,55.9,82,60,37,28.42,28.34,7,1,13,0.00
2013-5-31,81.1,74.3,69.6,62.8,55.4,47.8,67,52,36,28.47,28.35,10,3,23,0.00
2013-6-1,73.4,68.5,64.9,61.7,54.5,47.1,81,62,47,28.55,28.48,9,1,17,0.01
2013-6-2,77.4,71.1,64.2,60.3,57.8,53.7,80,64,44,28.49,28.36,10,2,18,0.01
2013-6-3,79.0,71.7,64.0,63.9,56.8,51.8,74,60,43,28.57,28.51,8,2,16,0.00
2013-6-11,88.0,83.2,76.6,65.4,62.5,59.4,67,50,40,28.41,28.25,8,3,17,0.00
2013-6-12,82.0,75.4,68.4,67.7,60.4,55.7,76,60,51,28.41,28.31,5,1,12,0.02
2013-6-13,77.5,71.2,67.6,64.2,62.1,60.8,87,74,60,28.50,28.41,8,3,14,0.00
2013-6-14,82.4,74.4,68.4,65.5,63.3,61.6,80,69,54,28.57,28.50,7,3,15,0.01
2013-6-15,86.2,79.3,71.2,68.2,64.1,60.3,69,60,49,28.59,28.55,6,1,14,0.00
2013-6-16,92.3,82.8,72.9,72.5,67.3,60.8,80,61,44,28.62,28.56,9,1,15,0.00
2013-6-17,94.6,85.4,75.0,69.6,65.5,57.6,77,53,38,28.62,28.55,7,2,15,0.00
2013-6-18,91.8,84.0,77.9,66.5,63.9,59.4,61,51,38,28.61,28.54,10,4,22,0.02
2013-6-19,92.1,85.9,79.5,65.1,61.9,58.9,54,45,35,28.57,28.48,20,8,34,1.20
2013-6-20,93.0,87.2,82.0,64.8,61.0,57.7,56,42,35,28.57,28.47,15,7,28,0.08
2013-6-21,88.5,83.1,78.4,64.6,62.0,56.4,56,49,42,28.57,28.51,15,8,27,0.04
2013-6-22,95.9,87.1,76.3,59.8,54.5,39.4,56,35,15,28.55,28.45,15,6,25,0.40
2013-6-23,94.5,87.2,79.0,71.4,62.0,51.7,69,44,35,28.48,28.39,10,3,17,0.00
2013-6-24,95.7,87.5,77.7,71.7,63.4,48.6,71,47,27,28.42,28.35,6,1,14,0.00
2013-6-25,94.5,85.8,77.7,69.8,65.1,62.4,64,51,36,28.40,28.35,6,1,11,0.00
2013-6-26,93.4,84.4,76.1,74.2,67.3,61.7,75,57,43,28.43,28.38,7,1,17,0.00
2013-6-27,90.0,82.4,77.0,72.0,69.3,67.6,79,65,48,28.50,28.45,8,2,16,0.00
2013-6-28,89.1,82.8,76.1,70.8,68.7,65.4,78,63,52,28.51,28.46,8,2,15,0.00
2013-6-29,86.2,80.3,74.1,72.0,65.3,57.0,83,62,47,28.51,28.35,8,2,15,0.00
2013-6-30,87.3,78.3,73.0,64.0,60.0,54.3,63,54,41,28.45,28.36,8,3,16,0.00
2013-7-1,89.2,79.9,72.5,66.0,59.8,55.3,74,52,35,28.60,28.46,8,3,15,0.00
2013-7-2,75.0,75.0,75.0,65.0,65.0,65.0,71,71,71,28.60,28.60,0,0,1,0.00
2013-7-3,88.5,86.3,80.8,63.7,62.4,58.7,48,45,41,28.53,28.47,12,5,19,0.00
2013-7-4,89.1,82.1,75.7,65.3,58.2,54.6,51,45,37,28.51,28.43,10,4,20,0.00
2013-7-5,89.4,82.8,75.7,67.2,60.0,54.1,53,46,38,28.50,28.43,10,4,21,0.00
2013-7-6,86.4,82.0,76.8,66.0,64.3,61.4,69,56,48,28.48,28.42,14,5,24,0.00
2013-7-7,89.8,85.2,79.2,68.5,66.0,63.3,67,53,46,28.53,28.44,14,8,26,0.02
2013-7-8,92.5,84.8,78.8,64.0,62.5,59.6,57,48,37,28.57,28.50,9,6,21,0.00
2013-7-9,94.5,87.2,81.1,67.6,63.9,58.0,55,46,37,28.55,28.40,10,6,19,0.00
2013-7-10,93.6,85.0,78.8,68.6,66.0,63.3,65,54,39,28.43,28.30,13,5,21,0.00
2013-7-11,93.2,85.9,78.1,69.2,63.6,58.4,68,48,38,28.39,28.32,9,3,13,0.00
2013-7-12,92.5,84.5,77.7,70.9,66.9,62.2,68,56,42,28.47,28.39,10,2,17,0.00
2013-7-13,93.0,86.6,79.5,68.5,66.1,62.9,63,51,45,28.48,28.41,8,3,20,0.00
2013-7-14,94.8,85.6,79.7,71.5,64.1,60.9,76,50,35,28.48,28.41,10,4,17,0.00
2013-7-15,91.9,83.9,79.0,67.9,63.3,58.3,67,51,40,28.47,28.38,9,3,18,0.00
2013-7-16,89.6,84.5,79.7,64.9,61.4,59.0,52,46,40,28.49,28.41,6,3,17,0.00
2013-7-17,83.1,79.8,75.2,66.1,63.1,59.2,68,57,49,28.55,28.49,13,8,24,0.07
2013-7-18,86.4,80.3,75.2,63.5,60.5,57.8,65,52,38,28.57,28.52,14,8,28,0.27
2013-7-19,88.0,81.6,76.5,61.2,58.3,54.3,56,46,36,28.55,28.45,15,7,23,0.00
2013-7-20,91.9,84.2,75.6,63.4,59.9,54.2,56,45,32,28.46,28.36,13,5,21,0.00
2013-7-21,94.3,86.5,77.7,63.1,60.2,54.7,52,42,33,28.42,28.36,10,4,21,0.00
2013-7-22,86.4,80.7,77.4,68.1,64.1,57.8,73,58,43,28.44,28.40,13,8,27,0.04
2013-7-23,88.9,81.4,74.5,65.9,59.6,52.0,64,49,29,28.43,28.38,10,5,19,0.00
2013-7-24,91.2,87.3,83.5,56.8,55.9,55.2,38,35,31,28.44,28.41,3,1,9,0.00
2013-7-25,96.4,86.7,81.5,70.8,60.0,54.2,58,41,33,28.48,28.38,6,2,15,0.00
2013-7-26,97.0,90.0,79.9,71.4,63.7,55.5,63,43,29,28.42,28.33,8,2,16,0.00
2013-7-27,95.0,87.9,81.3,66.3,62.1,55.6,57,43,32,28.43,28.36,9,3,22,0.00
2013-7-28,93.6,85.6,79.7,64.6,62.3,58.6,54,46,37,28.52,28.44,9,2,16,0.00
2013-7-29,96.3,85.9,80.4,63.5,60.9,55.8,52,44,26,28.53,28.43,12,4,21,0.00
2013-7-30,97.7,88.5,83.5,73.5,65.0,59.0,70,47,36,28.44,28.26,6,2,10,0.00
2013-7-31,98.6,90.6,83.5,71.5,67.2,61.7,60,46,39,28.29,28.21,10,4,22,0.00
2013-8-1,89.8,85.7,81.7,71.0,66.1,62.2,65,53,43,28.41,28.30,14,8,25,0.05
2013-8-2,90.3,84.3,79.0,67.0,65.7,61.3,65,54,39,28.47,28.43,15,7,22,0.00
2013-8-3,92.1,86.0,80.4,65.3,62.7,58.4,57,46,36,28.46,28.41,16,6,26,0.02
2013-8-4,97.7,88.9,81.5,65.8,62.0,57.9,52,42,28,28.43,28.39,15,6,24,0.00
2013-8-5,89.6,83.9,79.0,66.8,60.5,54.2,55,46,31,28.46,28.40,17,9,27,0.11
2013-8-6,88.7,83.6,79.2,62.2,58.8,55.6,52,44,33,28.43,28.37,17,10,25,0.40
2013-8-7,91.6,85.1,79.9,61.5,59.3,57.3,51,42,33,28.42,28.37,16,8,27,2.75
2013-8-8,95.2,87.1,80.2,62.1,58.7,54.8,49,39,27,28.48,28.40,16,8,30,26.54
2013-8-9,95.4,88.1,80.8,65.6,61.5,57.2,54,42,30,28.42,28.29,13,7,23,0.00
2013-8-10,95.7,85.1,77.9,73.9,66.6,61.8,83,55,34,28.29,28.13,7,2,14,0.00
2013-8-11,91.4,83.7,77.9,74.9,65.1,55.4,89,56,31,28.31,28.17,10,5,21,0.00
2013-8-12,93.0,86.0,79.3,67.1,61.6,58.6,58,45,33,28.42,28.33,13,5,19,0.00
2013-8-13,94.6,87.6,80.2,64.2,59.4,55.7,50,40,30,28.40,28.33,12,5,20,0.00
2013-8-14,96.3,88.2,81.5,61.6,58.6,55.9,51,38,27,28.34,28.28,13,5,23,0.01
2013-8-15,96.3,89.2,81.9,65.5,60.6,56.6,53,39,28,28.34,28.28,14,7,27,0.00
2013-8-16,89.1,84.3,78.3,71.4,69.2,63.1,74,61,51,28.36,28.30,14,7,23,0.01
2013-8-17,89.2,84.0,80.8,69.5,68.9,67.5,68,61,50,28.38,28.32,16,11,28,0.24
2013-8-18,92.8,86.7,79.5,65.8,61.3,58.0,59,43,35,28.45,28.38,12,7,28,0.01
2013-8-19,94.3,87.2,79.3,64.9,61.4,56.4,50,42,33,28.42,28.34,13,6,25,0.01
2013-8-20,97.0,88.0,80.2,67.4,60.4,50.0,51,40,27,28.36,28.28,9,5,19,0.00
2013-8-21,89.4,84.7,81.3,65.9,62.9,57.9,59,48,44,28.36,28.31,12,5,20,0.00
2013-8-22,88.5,82.8,76.3,67.9,65.3,63.6,66,56,48,28.34,28.29,8,5,16,0.00
2013-8-23,91.6,82.6,77.5,67.0,62.7,53.4,65,52,35,28.39,28.32,9,4,16,0.00
2013-8-24,90.3,83.2,77.7,64.2,58.4,50.5,50,43,36,28.41,28.32,6,2,16,0.00
2013-8-25,92.7,83.9,77.4,70.5,63.1,56.8,66,50,38,28.34,28.28,6,1,12,0.00
2013-8-26,93.9,85.3,79.3,73.0,66.3,60.7,61,53,39,28.36,28.29,5,1,8,0.00
2013-8-27,94.3,87.7,78.6,73.1,66.1,59.4,67,49,38,28.35,28.27,6,0,8,0.00
2013-10-25,78.6,69.7,62.2,59.9,47.5,39.8,55,45,39,28.57,28.51,7,2,13,0.00
2013-10-26,80.6,68.7,60.8,52.4,43.2,28.3,54,40,24,28.61,28.53,10,2,17,0.00
2013-10-27,81.3,69.4,59.4,60.6,45.0,26.0,81,44,21,28.58,28.49,6,1,10,0.00
2013-10-28,77.9,67.8,59.4,63.8,59.4,53.2,90,75,50,28.54,28.45,2,0,5,0.00
2013-10-29,81.9,69.3,60.6,66.5,60.9,54.2,89,76,53,28.49,28.39,3,0,8,0.00
2013-10-30,79.5,69.3,61.5,70.3,61.4,55.9,93,77,60,28.48,28.41,6,0,13,0.00
2013-10-31,80.4,70.9,62.4,63.1,55.8,49.7,74,59,50,28.56,28.47,10,4,18,0.00
2013-11-1,76.5,67.7,61.5,58.8,55.5,52.4,77,65,52,28.61,28.53,12,4,22,0.00
2013-11-2,75.6,65.4,58.1,60.5,56.2,51.1,92,73,57,28.59,28.49,6,1,11,0.00
2013-11-3,76.5,68.0,60.6,67.6,63.8,59.7,99,87,68,28.53,28.43,5,0,11,0.00
2013-11-4,78.1,70.5,64.2,69.8,64.8,61.1,99,83,58,28.48,28.34,6,0,11,0.00
2013-11-5,77.5,70.6,65.8,68.1,65.3,61.6,96,84,62,28.34,28.13,10,2,23,0.00
2013-11-6,70.5,65.1,60.4,66.5,62.3,59.5,99,91,77,28.13,28.00,16,3,49,0.77
2013-11-7,72.1,66.0,59.2,63.5,54.3,40.3,98,69,36,28.53,28.10,14,5,23,0.01
2013-11-8,77.5,66.0,57.4,58.3,51.9,42.9,76,61,46,28.60,28.51,3,0,7,0.00
2013-11-9,78.3,66.6,58.3,62.0,56.8,50.5,98,72,53,28.55,28.43,3,0,8,0.00
2013-11-10,76.3,66.9,60.3,65.6,62.3,55.6,99,86,66,28.43,28.27,5,0,8,0.00
2013-11-11,73.0,68.2,63.5,70.2,66.8,63.2,99,96,85,28.41,28.24,14,3,24,0.71
2013-11-12,75.7,69.1,65.8,68.2,66.3,63.1,99,91,75,28.50,28.39,9,4,18,0.00
2013-11-13,73.8,66.2,62.1,63.2,58.4,54.9,90,76,62,28.49,28.38,10,3,23,0.13
2013-11-14,67.5,61.9,57.4,59.6,58.0,56.5,99,87,74,28.41,28.30,15,6,30,0.70
2013-11-15,67.5,61.1,57.4,59.0,56.2,54.4,94,84,69,28.56,28.35,13,6,22,0.00
2013-11-16,64.2,60.0,57.2,56.3,53.4,49.1,92,79,69,28.61,28.55,15,6,25,0.00
2013-11-17,65.7,58.2,54.1,51.8,48.6,45.6,82,71,56,28.64,28.54,10,4,20,0.00
2013-11-18,65.7,58.3,52.3,52.1,49.0,45.7,80,71,59,28.61,28.54,15,4,22,0.00
2013-11-19,70.5,61.3,53.6,59.0,52.6,47.8,87,74,57,28.60,28.45,8,1,15,0.00
2013-11-20,73.4,66.6,61.5,69.4,64.0,59.3,99,91,83,28.45,28.30,13,4,26,0.41
2013-11-21,74.1,65.6,58.1,65.1,60.6,57.4,99,85,66,28.32,28.19,13,2,22,0.25
2013-11-22,72.0,62.6,57.0,62.3,57.1,53.3,99,84,60,28.24,28.15,6,0,11,0.01
2013-11-23,71.2,64.6,60.4,64.4,58.4,54.7,97,80,72,28.26,28.16,8,2,17,0.02
2013-11-24,67.3,62.0,59.4,64.7,59.8,54.9,99,93,75,28.22,28.12,18,2,27,0.53
2013-11-25,71.4,61.7,57.6,57.1,53.7,51.6,90,76,58,28.19,28.15,6,0,11,0.00
2013-11-26,70.3,60.7,55.9,57.6,54.6,52.2,92,81,58,28.24,28.14,6,0,11,0.02
2013-11-27,63.7,58.3,52.7,54.5,47.1,42.3,91,68,49,28.67,28.23,9,3,17,0.01
2013-11-28,62.8,55.4,52.2,46.4,42.9,38.3,78,63,47,28.77,28.66,9,4,16,0.00
2013-11-29,67.1,56.1,49.8,51.6,45.3,38.9,79,67,54,28.69,28.54,6,1,11,0.00
2013-11-30,59.0,56.8,54.7,54.1,50.1,45.8,87,78,70,28.59,28.48,15,6,24,0.08
2013-12-1,65.8,62.5,56.8,62.3,58.8,52.4,96,88,81,28.53,28.34,18,8,40,1.88
2013-12-2,68.2,62.4,58.5,64.7,60.7,56.0,99,94,85,28.54,28.39,13,6,26,0.51
2013-12-3,59.4,51.1,45.0,56.7,45.7,39.8,92,82,72,28.67,28.52,26,12,48,17.48
2013-12-4,50.9,45.9,42.6,43.1,40.5,36.7,97,82,69,28.64,28.55,15,3,23,0.07
2013-12-5,64.8,51.8,42.1,47.0,37.6,31.1,83,61,35,28.59,28.51,6,1,10,0.00
2013-12-6,68.0,55.4,46.0,50.7,41.8,30.2,78,61,47,28.56,28.34,5,1,9,0.00
2013-12-7,66.0,54.4,48.2,57.1,45.6,33.4,92,73,56,28.71,28.33,13,4,24,0.05
2013-12-8,58.1,49.3,43.3,36.2,31.4,27.4,65,51,36,28.90,28.70,10,2,21,0.58
2013-12-9,63.3,53.3,44.6,47.1,34.5,26.1,74,50,28,28.90,28.69,7,1,12,0.00
2013-12-10,64.8,55.1,45.9,47.3,42.5,34.8,85,64,43,28.85,28.58,14,5,27,0.02
2013-12-11,47.8,43.2,39.0,34.2,28.1,23.1,65,55,39,29.00,28.85,17,6,40,0.61
2013-12-12,54.9,45.9,37.8,40.1,32.1,22.8,77,60,33,28.95,28.74,8,2,17,0.00
2013-12-13,52.0,48.2,45.3,44.4,42.4,39.8,91,80,73,28.75,28.64,10,2,16,0.00
2013-12-14,63.3,52.6,44.4,55.6,45.2,39.8,92,77,57,28.85,28.69,3,0,8,0.00
2013-12-15,69.1,57.5,51.3,60.2,51.5,48.7,98,81,60,28.85,28.76,5,0,6,0.00
2013-12-16,60.1,53.8,50.7,51.2,47.9,41.7,91,80,66,28.87,28.76,13,5,26,0.00
2013-12-17,52.9,49.6,46.4,44.3,42.0,39.5,81,75,67,28.91,28.83,15,7,26,0.00
2013-12-18,53.4,48.0,45.1,43.9,41.7,40.0,83,79,67,28.84,28.72,15,6,30,29.10
2013-12-19,56.3,49.5,45.9,48.5,42.4,38.8,93,77,59,28.78,28.71,10,3,23,0.00
2013-12-20,63.1,51.2,43.3,48.3,41.4,36.5,86,70,44,28.94,28.78,3,0,7,0.00
2013-12-21,64.2,53.0,46.0,52.9,47.0,42.0,97,81,62,29.01,28.93,3,0,7,0.00
2013-12-22,66.2,52.9,45.0,45.5,40.2,32.4,88,64,33,28.99,28.86,7,1,11,0.00
2013-12-23,62.1,50.3,44.1,51.0,42.9,36.6,88,76,53,28.87,28.75,6,0,10,0.00
2013-12-24,59.4,53.8,50.4,56.1,48.1,45.1,89,81,72,28.80,28.64,10,2,23,0.00
2013-12-25,65.8,59.3,53.6,55.0,52.5,49.5,89,78,67,28.69,28.50,13,4,23,0.00
2013-12-26,68.9,59.3,53.8,63.4,56.8,51.9,99,92,72,28.53,28.32,10,1,21,0.02
2013-12-27,61.0,57.8,54.0,60.5,57.2,53.7,99,98,91,28.33,28.24,13,3,26,0.74
2013-12-28,61.7,56.5,54.1,58.3,53.4,46.7,99,90,71,28.40,28.26,13,5,21,0.07
2013-12-29,67.1,56.8,50.4,53.5,48.4,43.7,90,74,54,28.56,28.39,6,1,14,0.00
2013-12-30,66.6,57.5,49.5,52.4,46.7,42.2,78,68,52,28.60,28.53,12,2,18,0.00
2013-12-31,57.6,51.9,49.1,51.0,45.2,42.5,83,78,69,28.67,28.57,10,4,20,0.00
2014-1-1,51.4,49.8,48.6,51.2,46.5,42.4,99,89,75,28.64,28.55,9,3,17,0.34
2014-1-2,60.4,53.5,49.6,51.7,48.7,45.3,99,84,71,28.60,28.53,12,3,17,0.06